Regional Weather Roundup
Issued by NWS Newport/Morehead, NC

Current Version | Previous Version | Graphics & Text | Print | Product List | Glossary On
Versions: 1 2 3 4 5 6 7 8 9 10 11 12 13 14 15 16 17 18 19 20 21 22 23 24 25 26 27 28 29 30 31 32 33 34 35 36 37 38 39 40 41 42 43 44 45 46 47 48 49 50
000 ASUS42 KMHX 250225 RWRMHX WEATHER ROUNDUP FOR EASTERN NORTH CAROLINA NATIONAL WEATHER SERVICE NEWPORT/MOREHEAD CITY NC 900 PM EST FRI FEB 24 2017 NOTE: "FAIR" INDICATES FEW OR NO CLOUDS BELOW 12,000 FEET WITH NO SIGNIFICANT WEATHER AND/OR OBSTRUCTIONS TO VISIBILITY NCZ015>017-031-032-045>047-102-103-250300- NORTH COAST CITY SKY/WX TMP DP RH WIND PRES REMARKS EDENTON CLEAR 64 58 80 CALM 29.86S ELIZABETH CITY CLEAR 63 58 83 SE10 29.86F KITTY HAWK NOT AVBL MANTEO CLEAR 60 57 91 SE5 29.87F $$ NCZ045>047-081-094-103-104-250300- CENTRAL COAST CITY SKY/WX TMP DP RH WIND PRES REMARKS FRISCO CLEAR 64 59 83 E5 29.86F $$ NCZ095-097-098-100-101-250300- SOUTHERN COAST CITY SKY/WX TMP DP RH WIND PRES REMARKS BEAUFORT CLEAR 64 60 87 E3 29.85F CEDAR ISLAND NOT AVBL JACKSONVILLE CLEAR 62 60 93 CALM 29.84S PINEY ISLAND CLEAR N/A N/A N/A E6 29.85F WILMINGTON CLEAR 60 59 96 CALM 29.85S $$ NCZ011>013-027>030-043-044-078>080-089-090>093-098-250300- COASTAL PLAIN CITY SKY/WX TMP DP RH WIND PRES REMARKS AHOSKIE N/A 60 58 92 CALM 29.86S CLINTON CLEAR 64 60 86 CALM 29.85S ELIZABETHTOWN CLEAR 64 59 84 CALM 29.85S GOLDSBORO CLEAR 65 64 94 CALM 29.83S GREENVILLE CLEAR 64 61 88 S5 29.88S HAVELOCK CLEAR 60 57 89 SE5 29.85F KENANSVILLE CLEAR 63 59 88 CALM 29.85S KINSTON CLEAR 66 59 77 SE3 29.86S NEW BERN CLEAR 65 60 84 SE3 29.85F RICHLANDS CLEAR 59 58 96 CALM 29.86S ROCKY MOUNT CLEAR 65 60 84 S3 29.85R WASHINGTON CLEAR 59 57 93 CALM 29.85S WHITEVILLE CLEAR 65 59 81 CALM 29.85S $$ AMZ130-135-150-152-154-156-158-170-250-252-270-ANZ085-086-088-633-658-670-250300- MARINE OBSERVATIONS STATION/POSITION TIME TEMP WIND PRES WAVE SWELL AIR SEA DIR/SP/G HT/PER HT/PER (UTC) (F) (DEG/KT/KT) (MB) (FT/S) (FT/S) CHESAPEAKE LIGHT NOT AVBL 64 E VA BEACH 0150 57 55 90/ 4/ 6 1011.8 6/ 8 7/ 8 DUCK 0200 56 49 130/ 9/ 10 1010.7 2 E DUCK 0200 52 N/A 5/12 2/12 OREGON INLET 0200 57 60 80/ 3/ 5 1011.4 13E OREGON INLT NOT AVBL HATTERAS CG 0200 65 63 60/ 3/ 5 1010.9 DIAMOND BUOY 0150 71 77 110/ 14/ 17 1010.7 8/10 7/10 CAPE LOOKOUT 0200 65 80/ 7/ 8 1010.4 BEAUFORT LAB 0200 65 62 60/ 4/ 5 1009.8 30 SE NEW RVR IN 0208 68 90/ 8/ 12 1010.4 30 SE NEW RVR IN 0213 70 N/A 8/10 3/12 27 SE WRIGHTSVLE 0208 68 67 80/ 6/ 10 1009.4 5 SE WRIGHTSVLE 0208 60 59 350/ 4/ 8 1010.4 225 S CAPE HAT 0150 68 70 30/ 4/ 6 1007.8 11/11 11/11 41 SE CHARLESTON 0150 69 71 50/ 6/ 6 1010.4 7/11 7/11 $$

USA.gov is the U.S. government's official web portal to all federal, state and local government web resources and services.